Location: Amsterdam
(30.7274°N, 84.4357°W)
Time: 00:49:44
(UTC+00:00)

Tiros 1 - Pass Details

Date: 24 February 2026
Orbit: 618 x 649 km, 48.4° (Epoch: 9 March)

Event Time Altitude Azimuth Distance (km) Brightness Sun altitude
Rises 10:11:39 0° 214° (SW) 2,933 - -26.1°
Reaches altitude 10° 10:14:02 10° 209° (SSW) 2,022 - -25.6°
Exits shadow 10:17:28 41° 175° (S) 929 7.9 -24.8°
Maximum altitude 10:18:32 49° 135° (SE) 817 7.8 -24.6°
Drops below altitude 10° 10:23:00 10° 60° (ENE) 2,011 10.5 -23.6°
Sets 10:25:22 0° 55° (NE) 2,916 11.4 -23.1°
